WB0VHB-WX Weather Reports


time (UTC)temp
C
wind
direction
speed
KPH
gust
KPH
rain 1hr
cm
rain 24hr
cm
rain mn
cm
humidity
%
barometer
mb
20260504150925 22 225 24.1 38.6 0.00 0.00 0.00 42 1000.4
20260504140904 21 198 22.5 38.6 0.00 0.00 0.00 44 1000.8
20260504081825 10 201 8.0 14.5 0.00 0.00 0.00 65 1003.8
20260504080925 10 198 4.8 11.3 0.00 0.00 0.00 64 1003.8
20260504050004 13 225 4.8 8.0 0.00 0.00 0.00 56 1005.5
20260504045425 13 224 6.4 11.3 0.00 0.00 0.00 56 1005.5
20260504044504 13 224 8.0 11.3 0.00 0.00 0.00 56 1005.6
20260504043624 13 225 8.0 12.9 0.00 0.00 0.00 55 1005.7
20260504042725 13 225 8.0 11.3 0.00 0.00 0.00 55 1005.7
20260504041804 13 224 9.7 12.9 0.00 0.00 0.00 55 1005.8
20260504040904 13 224 8.0 11.3 0.00 0.00 0.00 54 1005.8
20260504040004 13 225 8.0 12.9 0.00 0.00 0.00 53 1005.9
20260504035403 13 224 9.7 12.9 0.00 0.00 0.00 53 1005.9
20260504034504 14 223 9.7 12.9 0.00 0.00 0.00 53 1006.0
20260504033604 14 225 9.7 12.9 0.00 0.00 0.00 52 1006.0
20260504032704 15 225 9.7 14.5 0.00 0.00 0.00 52 1006.1
20260504031804 15 226 9.7 14.5 0.00 0.00 0.00 52 1006.1
20260504030903 15 227 9.7 12.9 0.00 0.00 0.00 51 1006.2
20260504030004 15 226 8.0 12.9 0.00 0.00 0.00 51 1006.1
20260504025404 15 226 9.7 12.9 0.00 0.00 0.00 50 1006.0
20260504024526 15 226 9.7 14.5 0.00 0.00 0.00 48 1006.0
20260504023604 16 225 9.7 14.5 0.00 0.00 0.00 48 1006.0
20260504022704 16 226 9.7 12.9 0.00 0.00 0.00 48 1005.9
20260504021804 16 225 11.3 16.1 0.00 0.00 0.00 47 1005.9
20260504020905 16 223 11.3 16.1 0.00 0.00 0.00 46 1005.8
20260504020004 16 223 11.3 16.1 0.00 0.00 0.00 46 1005.8
20260504015404 16 224 12.9 17.7 0.00 0.00 0.00 45 1005.8
20260504014504 17 222 12.9 17.7 0.00 0.00 0.00 44 1005.8
20260504013604 17 223 11.3 17.7 0.00 0.00 0.00 42 1005.7
20260504012704 18 226 11.3 17.7 0.00 0.00 0.00 41 1005.7
20260504011804 18 226 12.9 20.9 0.00 0.00 0.00 40 1005.7
20260504010904 18 227 11.3 19.3 0.00 0.00 0.00 39 1005.6
20260504010004 20 226 11.3 19.3 0.00 0.00 0.00 38 1005.6
20260504005403 20 225 11.3 19.3 0.00 0.00 0.00 37 1005.5
20260504004503 20 225 9.7 17.7 0.00 0.00 0.00 36 1005.6
20260504003603 21 225 9.7 17.7 0.00 0.00 0.00 35 1005.5
20260504002703 21 226 11.3 22.5 0.00 0.00 0.00 33 1005.6
20260504001804 21 224 12.9 25.7 0.00 0.00 0.00 32 1005.5
20260504000903 22 228 11.3 19.3 0.00 0.00 0.00 31 1005.5
20260504000003 22 233 11.3 24.1 0.00 0.00 0.00 30 1005.5
20260503235403 22 232 12.9 24.1 0.00 0.00 0.00 30 1005.4
20260503234503 22 231 12.9 25.7 0.00 0.00 0.00 29 1005.4
20260503233603 22 232 9.7 22.5 0.00 0.00 0.00 29 1005.5
20260503232704 22 235 11.3 27.4 0.00 0.00 0.00 29 1005.5
20260503231804 22 243 9.7 24.1 0.00 0.00 0.00 28 1005.3
20260503230904 22 242 11.3 24.1 0.00 0.00 0.00 29 1005.5
20260503230025 22 231 14.5 33.8 0.00 0.00 0.00 29 1005.5
20260503225403 23 239 9.7 25.7 0.00 0.00 0.00 29 1005.5
20260503224503 22 248 8.0 17.7 0.00 0.00 0.00 30 1005.6
20260503223603 23 243 11.3 27.4 0.00 0.00 0.00 29 1005.5
20260503222724 22 246 9.7 24.1 0.00 0.00 0.00 30 1005.6
20260503221803 22 238 12.9 29.0 0.00 0.00 0.00 30 1005.7
20260503220903 22 246 8.0 25.7 0.00 0.00 0.00 31 1005.7
20260503220024 22 247 11.3 22.5 0.00 0.00 0.00 33 1005.7
20260503215403 22 249 9.7 24.1 0.00 0.00 0.00 32 1005.8
20260503214503 22 240 12.9 35.4 0.00 0.00 0.00 33 1005.9
20260503213603 22 237 12.9 33.8 0.00 0.00 0.00 33 1005.8
20260503212724 22 254 8.0 20.9 0.00 0.00 0.00 35 1005.9
20260503211803 22 254 9.7 24.1 0.00 0.00 0.00 35 1006.0
20260503210903 22 262 9.7 19.3 0.00 0.00 0.00 35 1006.2
20260503210004 21 248 9.7 29.0 0.00 0.00 0.00 36 1006.2
20260503205403 21 250 8.0 20.9 0.00 0.00 0.00 36 1006.4
20260503204504 21 242 16.1 35.4 0.00 0.00 0.00 35 1006.6
20260503203603 21 233 16.1 41.8 0.00 0.00 0.00 36 1006.6
20260503202703 21 242 11.3 32.2 0.00 0.00 0.00 36 1006.7
20260503201825 21 252 8.0 29.0 0.00 0.00 0.00 35 1006.7
20260503200903 21 244 11.3 27.4 0.00 0.00 0.00 37 1006.8
20260503200004 20 241 12.9 35.4 0.00 0.00 0.00 37 1006.9
20260503195403 21 234 16.1 37.0 0.00 0.00 0.00 37 1006.9
20260503194503 21 236 16.1 40.2 0.00 0.00 0.00 38 1007.1
20260503193603 20 234 17.7 46.7 0.00 0.00 0.00 37 1007.0
20260503192703 20 229 17.7 37.0 0.00 0.00 0.00 37 1007.0
20260503191803 20 229 17.7 37.0 0.00 0.00 0.00 39 1006.6
20260503190903 20 227 24.1 45.1 0.00 0.00 0.00 39 1006.7
20260503190003 20 235 16.1 33.8 0.00 0.00 0.00 38 1007.2
20260503185424 20 234 17.7 33.8 0.00 0.00 0.00 39 1007.3
20260503184503 20 239 11.3 32.2 0.00 0.00 0.00 38 1007.3
20260503183624 19 236 17.7 41.8 0.00 0.00 0.00 38 1007.1
20260503182704 18 232 22.5 43.5 0.00 0.00 0.00 40 1007.4
20260503181803 19 226 27.4 49.9 0.00 0.00 0.00 38 1007.5
20260503180903 19 231 19.3 45.1 0.00 0.00 0.00 38 1007.4
20260503180004 19 233 22.5 41.8 0.00 0.00 0.00 38 1007.7
20260503175403 18 234 22.5 41.8 0.00 0.00 0.00 38 1007.7
20260503174503 18 231 24.1 41.8 0.00 0.00 0.00 38 1007.9
20260503173624 18 230 25.7 41.8 0.00 0.00 0.00 39 1007.9
20260503172703 18 244 12.9 24.1 0.00 0.00 0.00 40 1008.0
20260503171803 18 234 22.5 56.3 0.00 0.00 0.00 38 1008.2
20260503170903 18 226 25.7 43.5 0.00 0.00 0.00 40 1008.4